Location: Newark
(38.7000°N, 9.1833°W)
Time: 01:52:43
(UTC+00:00)

Envisat - Pass Details

Date: 27 October 2019
Orbit: 764 x 766 km, 98.1° (Epoch: 20 November)

Event Time Altitude Azimuth Distance (km) Brightness Sun altitude
Rises 19:47:44 0° 203° (SSW) 3,218 6.5 -24.9°
Reaches altitude 10° 19:50:36 10° 220° (SW) 2,297 5.9 -25.5°
Maximum altitude 19:54:17 20° 267° (W) 1,712 5.6 -26.2°
Drops below altitude 10° 19:57:59 10° 314° (NW) 2,308 6.1 -26.9°
Sets 20:00:54 0° 331° (NNW) 3,239 6.7 -27.5°
